TimeCST,TemperatureF,Dew PointF,Humidity,Sea Level PressureIn,VisibilityMPH,Wind Direction,Wind SpeedMPH,Gust SpeedMPH,PrecipitationIn,Events,Conditions,WindDirDegrees,DateUTC
12:20 AM,26.6,21.2,80,30.12,10.0,Calm,Calm,-,N/A,,Scattered Clouds,0,2012-12-11 06:20:00
12:53 AM,26.1,19.9,78,30.14,10.0,NW,3.5,-,N/A,,Clear,320,2012-12-11 06:53:00
1:53 AM,24.1,19.0,81,30.15,10.0,WNW,4.6,-,N/A,,Clear,300,2012-12-11 07:53:00
2:53 AM,24.1,19.0,81,30.14,-9999.0,Calm,Calm,-,N/A,,Clear,0,2012-12-11 08:53:00
3:53 AM,23.0,19.0,85,30.14,-9999.0,Calm,Calm,-,N/A,,Clear,0,2012-12-11 09:53:00
4:53 AM,21.9,18.0,85,30.15,-9999.0,Calm,Calm,-,N/A,,Clear,0,2012-12-11 10:53:00
5:53 AM,21.9,18.0,85,30.16,-9999.0,Calm,Calm,-,N/A,,Clear,0,2012-12-11 11:53:00
6:53 AM,21.9,18.0,85,30.18,-9999.0,Calm,Calm,-,N/A,,Clear,0,2012-12-11 12:53:00
7:53 AM,23.0,19.0,85,30.21,-9999.0,Calm,Calm,-,N/A,,Clear,0,2012-12-11 13:53:00
8:53 AM,27.0,21.0,78,30.22,10.0,Calm,Calm,-,N/A,,Clear,0,2012-12-11 14:53:00
9:53 AM,32.0,23.0,69,30.25,10.0,West,3.5,-,N/A,,Clear,260,2012-12-11 15:53:00
10:53 AM,34.0,21.9,61,30.24,10.0,WSW,6.9,-,N/A,,Clear,250,2012-12-11 16:53:00
11:53 AM,35.1,23.0,61,30.22,10.0,South,6.9,-,N/A,,Clear,190,2012-12-11 17:53:00
12:53 PM,37.0,24.1,59,30.21,10.0,SSW,9.2,-,N/A,,Clear,210,2012-12-11 18:53:00
1:53 PM,39.0,25.0,57,30.19,10.0,SSW,6.9,-,N/A,,Clear,210,2012-12-11 19:53:00
2:53 PM,39.0,25.0,57,30.18,10.0,South,4.6,-,N/A,,Clear,190,2012-12-11 20:53:00
3:53 PM,39.0,25.0,57,30.18,10.0,SSW,6.9,-,N/A,,Clear,200,2012-12-11 21:53:00
4:53 PM,37.0,25.0,62,30.20,10.0,SSW,5.8,-,N/A,,Clear,200,2012-12-11 22:53:00
5:53 PM,35.1,24.1,64,30.21,10.0,South,3.5,-,N/A,,Clear,190,2012-12-11 23:53:00
6:53 PM,32.0,25.0,75,30.21,10.0,Calm,Calm,-,N/A,,Clear,0,2012-12-12 00:53:00
7:53 PM,30.0,25.0,82,30.24,10.0,Calm,Calm,-,N/A,,Clear,0,2012-12-12 01:53:00
8:53 PM,28.9,24.1,82,30.25,10.0,Calm,Calm,-,N/A,,Clear,0,2012-12-12 02:53:00
9:53 PM,28.0,24.1,85,30.27,10.0,Calm,Calm,-,N/A,,Clear,0,2012-12-12 03:53:00
10:53 PM,27.0,23.0,85,30.28,10.0,Calm,Calm,-,N/A,,Clear,0,2012-12-12 04:53:00